GSAT0214 (GALILEO 18)

Last updated on Tue Jul 01 2025 00:02:33 GMT+0000 (Coordinated Universal Time)

1 41862U 16069D 25181.16262550 -.00000012 00000+0 00000+0 0 9999 2 41862 55.2819 110.8340 0003861 308.8428 51.1054 1.70474015 53644
UTC large
Height (km)
Speed (km/s)
/
Latitude / Longitude
Inclination (degrees)
Orbital Period (minutes)
Azimuth
Elevation
Range (km)
Doppler Factor

Next 0 passes for location: London (51.5072 / 0.1276)

Sorry there are no passes over London.